Weather History for Pensacola NAS, FL

Change the Weather History Date:

Friday, September 20, 2013

  Actual Average Record
Temperature  
Mean Temperature 81 °F -  
Max Temperature 88 °F 84 °F 93 °F (1997)
Min Temperature 75 °F 68 °F 61 °F (2006)
Cooling Degree Days 16    
Growing Degree Days 31 (Base 50)    
Moisture  
Dew Point 74 °F    
Average Humidity 78    
Maximum Humidity 94    
Minimum Humidity 61    
Precipitation  
Precipitation 0.00 in - - ()
Sea Level Pressure  
Sea Level Pressure 29.95 in    
Wind  
Wind Speed 8 mph (SE)    
Max Wind Speed 15 mph    
Max Gust Speed 17 mph    
Visibility 10 miles    
Events      
Averages and records for this station are not official NWS values.
T = Trace of Precipitation, MM = Missing Value Source: NWS Daily Summary

Daily Weather History Graph

Daily Weather History Graph

Search for Another Location

Airport:

Trip Planner

Search our weather history database for the weather conditions in past years. The results will help you decide how hot, cold, wet, or windy it might be!

Date:

Astronomy

Sep. 20, 2013 Rise Set
Actual Time 6:36 AM CDT 6:48 PM CDT
Civil Twilight 6:12 AM CDT 7:12 PM CDT
Nautical Twilight 5:44 AM CDT 7:39 PM CDT
Astronomical Twilight 5:16 AM CDT 8:08 PM CDT
Moon 7:31 PM CDT (9/20) 7:42 AM CDT (9/20)
Length of Visible Light 12h 59m
Length of Day
12h 11m
Full, 98% of the Moon is Illuminated
Sep 20
Full
Sep 26
Last Quarter
Oct 4
New
Oct 11
First Quarter
Oct 18
Full

Hourly Weather History & Observations

Time (CDT) Temp. Heat Index Dew Point Humidity Pressure Visibility Wind Dir Wind Speed Gust Speed Precip Events Conditions
12:56 AM 79.0 °F - 73.0 °F 82% 30.03 in 10.0 mi SE 5.8 mph - N/A   Clear
1:56 AM 79.0 °F - 73.0 °F 82% 30.02 in 10.0 mi SE 6.9 mph - N/A   Partly Cloudy
2:56 AM 80.1 °F 84.2 °F 73.0 °F 79% 30.00 in 10.0 mi SE 9.2 mph - N/A   Clear
3:56 AM 77.0 °F - 75.0 °F 94% 29.99 in 10.0 mi ENE 5.8 mph - N/A   Mostly Cloudy
4:56 AM 77.0 °F - 75.0 °F 94% 29.99 in 10.0 mi NE 4.6 mph - N/A   Mostly Cloudy
5:11 AM 77.0 °F - 75.2 °F 94% 29.98 in 10.0 mi NE 4.6 mph - N/A   Mostly Cloudy
5:24 AM 77.0 °F - 75.2 °F 94% 29.98 in 10.0 mi NE 5.8 mph - N/A   Mostly Cloudy
5:56 AM 77.0 °F - 73.9 °F 90% 29.99 in 10.0 mi ENE 5.8 mph - N/A   Mostly Cloudy
6:56 AM 75.9 °F - 73.0 °F 91% 30.00 in 10.0 mi NNE 4.6 mph - N/A   Mostly Cloudy
7:32 AM 78.8 °F - 73.4 °F 83% 29.99 in 10.0 mi NE 5.8 mph - N/A   Mostly Cloudy
7:56 AM 81.0 °F 86.2 °F 73.9 °F 79% 29.99 in 10.0 mi ESE 12.7 mph - N/A   Mostly Cloudy
8:56 AM 84.0 °F 90.2 °F 73.0 °F 69% 30.00 in 10.0 mi ESE 11.5 mph - N/A   Mostly Cloudy
9:56 AM 84.0 °F 92.6 °F 75.9 °F 76% 30.00 in 10.0 mi East 9.2 mph - N/A   Mostly Cloudy
10:56 AM 87.1 °F 93.6 °F 72.0 °F 61% 30.00 in 10.0 mi SE 9.2 mph - N/A   Scattered Clouds
11:56 AM 87.1 °F 94.5 °F 73.0 °F 63% 29.99 in 10.0 mi SSE 10.4 mph - N/A   Mostly Cloudy
12:56 PM 86.0 °F 93.0 °F 73.0 °F 65% 29.96 in 10.0 mi SSE 11.5 mph 17.3 mph N/A   Mostly Cloudy
1:56 PM 87.1 °F 95.4 °F 73.9 °F 65% 29.94 in 10.0 mi SSE 12.7 mph - N/A   Mostly Cloudy
2:56 PM 86.0 °F 93.8 °F 73.9 °F 67% 29.91 in 10.0 mi SSE 15.0 mph - N/A   Mostly Cloudy
3:56 PM 84.9 °F 92.1 °F 73.9 °F 69% 29.90 in 10.0 mi SSE 13.8 mph - N/A   Mostly Cloudy
4:56 PM 84.0 °F 91.9 °F 75.0 °F 74% 29.88 in 10.0 mi SSE 12.7 mph - N/A   Mostly Cloudy
5:56 PM 82.9 °F 89.4 °F 73.9 °F 74% 29.88 in 10.0 mi SSE 12.7 mph - N/A   Overcast
6:56 PM 82.0 °F 87.9 °F 73.9 °F 76% 29.88 in 10.0 mi South 10.4 mph - N/A   Overcast
7:56 PM 82.0 °F 87.9 °F 73.9 °F 76% 29.89 in 10.0 mi SSE 11.5 mph - N/A   Overcast
8:56 PM 82.0 °F 87.9 °F 73.9 °F 76% 29.90 in 10.0 mi South 11.5 mph - N/A   Overcast
9:56 PM 82.0 °F 87.9 °F 73.9 °F 76% 29.89 in 10.0 mi SSE 12.7 mph - N/A   Overcast
10:56 PM 82.0 °F 88.6 °F 75.0 °F 79% 29.88 in 10.0 mi South 15.0 mph - N/A   Overcast
11:56 PM 82.0 °F 87.9 °F 73.9 °F 76% 29.87 in 10.0 mi South 13.8 mph - N/A   Partly Cloudy